Location: Unspecified
(48.7170°N, 0.0000°E)
Time: 14:31:31
(UTC+00:00)

ISS - Pass Details

Date: 02 June 2019
Orbit: 408 x 418 km, 51.6° (Epoch: 25 June)

Event Time Altitude Azimuth Distance (km) Brightness Sun altitude
Rises 21:11:42 0° 288° (WNW) 2,357 1.1 -9.9°
Reaches altitude 10° 21:14:00 10° 275° (W) 1,493 -0.3 -10.2°
Maximum altitude 21:16:49 25° 217° (SW) 882 -2.3 -10.4°
Enters shadow 21:18:54 14° 168° (SSE) 1,255 -1.9 -10.7°
